Location: Lawrence Hall of Science
(37.8785°N, 122.2415°W)
Time: 05:20:24
(UTC-07:00)

ARGOS - Visible Passes

Search period start: 28 July 2014 00:00
Search period end: 07 August 2014 00:00
Orbit: 821 x 835 km, 98.8° (Epoch: 27 July)

Date Brightness Start Highest point End Pass type
(mag) Time Alt. Az. Time Alt. Az. Time Alt. Az.
28 Jul 5.1 21:10:07 10° E 21:12:41 14° ENE 21:15:15 10° NNE visible
28 Jul 3.2 22:50:55 52° S 22:52:14 75° WSW 22:57:36 10° NNW visible
29 Jul 3.1 22:32:20 48° SE 22:33:50 74° ENE 22:39:12 10° N visible
30 Jul 5.5 00:13:52 12° W 00:14:35 12° W 00:16:37 10° WNW visible
30 Jul 3.5 22:13:45 36° ESE 22:15:29 50° ENE 22:20:39 10° N visible
30 Jul 5.1 23:55:17 18° WSW 23:55:58 19° W 23:59:40 10° NW visible
31 Jul 4.0 21:55:10 26° ESE 21:57:12 34° ENE 22:01:58 10° N visible
31 Jul 4.5 23:36:42 27° WSW 23:37:24 28° W 23:41:58 10° NW visible
01 Aug 4.5 21:36:36 18° E 21:38:57 24° ENE 21:43:07 10° NNE visible
01 Aug 3.9 23:18:08 39° WSW 23:18:53 42° W 23:23:58 10° NNW visible
02 Aug 4.9 21:18:01 11° E 21:20:46 16° ENE 21:23:58 10° NNE visible
02 Aug 3.3 22:59:33 55° SW 23:00:25 63° WSW 23:05:45 10° NNW visible
03 Aug 5.2 21:01:19 10° ENE 21:02:37 11° ENE 21:03:56 10° NE visible
03 Aug 3.0 22:40:59 60° SSE 22:42:00 87° ENE 22:47:24 10° NNW visible
04 Aug 3.2 22:22:24 47° ESE 22:23:38 59° ENE 22:28:55 10° N visible
05 Aug 5.3 00:03:56 16° W 00:04:14 16° W 00:07:23 10° NW visible
05 Aug 3.7 22:03:50 33° ESE 22:05:19 40° ENE 22:10:18 10° N visible
05 Aug 4.8 23:45:22 24° W 23:45:39 24° W 23:49:54 10° NW visible
06 Aug 4.3 21:45:16 23° E 21:47:03 28° ENE 21:51:32 10° N visible
06 Aug 4.2 23:26:48 35° WSW 23:27:07 35° W 23:32:01 10° NNW visible
